Flag for U.S.A. Weather past 2 weeks in Appleton, Wisconsin, U.S.A.

Now
39 °F

Scattered clouds.


Feels Like: 34 °F
Forecast: 31 / 38 °F
Wind: 8 mph from Southwest

Location: Appleton / Outagamie

Current Time: Dec 26, 2014 at 11:16:58 AM

Latest Report: Dec 26, 2014 at 10:45 AM


Visibility: 10 mi

Pressure: 29.96 "Hg

Humidity: 87%

Dew point: 36 °F

Location of AppletonLocation

Historic Weather in Appleton — Graph

°F

Appleton temperature yesterday

Maximum temperature yesterday: 36 °F (at 12:45 PM)
Minimum temperature yesterday: 30 °F (at 10:55 PM)
Average temperature yesterday: 33 °F

Past Weeks' High & Low Weather Summary

 TemperatureHumidityPressure
High43 °F (Dec 15, 10:45 AM)100% (Dec 11, 9:45 AM)30.31 "Hg (Dec 11, 9:45 AM)
Low16 °F (Dec 19, 5:45 AM)59% (Dec 17, 11:45 AM)29.48 "Hg (Dec 24, 1:45 PM)
Average31 °F93%29.99 "Hg
* Reported Dec 11 9:45 AM — Dec 26 9:45 AM, Appleton, Weather by CustomWeather, © 2014

Note: Actual official high and low records may vary slightly from our data, if they occured in-between our weather recording intervals... More about our weather records

Advertising

Appleton weather history for previous 24 hours

 ConditionsComfort  
Time TempWeatherWind HumidityBarometerVisibility
9:45 AM
Dec 26
36 °FScattered clouds.3 mph100%29.98 "Hg7 mi
8:45 AM32 °FScattered clouds.3 mph100%29.96 "Hg7 mi
7:45 AM30 °FScattered clouds.3 mph100%29.94 "Hg7 mi
6:45 AM32 °FPassing clouds.3 mph100%29.93 "Hg7 mi
5:45 AM32 °FPassing clouds.3 mph100%29.92 "Hg7 mi
4:15 AM32 °FClear.5 mph100%29.91 "Hg7 mi
3:55 AM30 °FIce fog.6 mph100%29.91 "Hg5 mi
3:35 AM30 °FIce fog.5 mph100%29.91 "Hg2 mi
3:15 AM30 °FIce fog.3 mph100%29.91 "Hg1 mi
2:55 AM28 °FIce fog.5 mph100%29.91 "Hg1 mi
2:15 AM32 °FIce fog.5 mph100%29.92 "Hg4 mi
1:55 AM30 °FIce fog.5 mph100%29.91 "Hg5 mi
1:35 AM32 °FClear.6 mph100%29.91 "Hg7 mi
1:15 AM32 °FIce fog.5 mph100%29.91 "Hg5 mi
12:55 AM30 °FIce fog.6 mph100%29.91 "Hg4 mi
12:35 AM30 °FIce fog.6 mph100%29.91 "Hg5 mi
12:15 AM30 °FIce fog.5 mph100%29.92 "Hg5 mi
11:55 PM
Dec 25
32 °FIce fog.5 mph100%29.93 "Hg5 mi
11:15 PM30 °FIce fog.5 mph100%29.93 "Hg5 mi
10:55 PM30 °FClear.5 mph100%29.92 "Hg7 mi
10:35 PM32 °FClear.3 mph100%29.93 "Hg7 mi
10:15 PM32 °FClear.No wind100%29.93 "Hg7 mi
9:45 PM32 °FPassing clouds.3 mph93%29.92 "Hg10 mi
8:45 PM32 °FPassing clouds.No wind100%29.91 "Hg10 mi
7:45 PM32 °FPassing clouds.3 mph100%29.90 "Hg10 mi
6:45 PM32 °FPassing clouds.3 mph93%29.90 "Hg10 mi
4:45 PM34 °FPassing clouds.5 mph87%29.88 "Hg10 mi
3:45 PM34 °FBroken clouds.3 mph87%29.87 "Hg10 mi
2:45 PM36 °FPartly sunny.12 mph75%29.86 "Hg10 mi
1:45 PM36 °FPartly sunny.13 mph75%29.84 "Hg10 mi
12:45 PM36 °FPartly sunny.16 mph81%29.83 "Hg10 mi
11:45 AM34 °FOvercast.16 mph87%29.83 "Hg10 mi
Weather by CustomWeather, © 2014

See weather overviewHow to use our weather pages